TimeEST,TemperatureF,Dew PointF,Humidity,Sea Level PressureIn,VisibilityMPH,Wind Direction,Wind SpeedMPH,Gust SpeedMPH,PrecipitationIn,Events,Conditions,WindDirDegrees,DateUTC
12:03 AM,23.0,14.0,68,30.33,10.0,NNW,11.5,17.3,N/A,,Clear,330,2013-01-18 05:03:00
12:22 AM,23.0,14.0,68,30.34,10.0,NW,10.4,17.3,N/A,,Clear,310,2013-01-18 05:22:00
12:43 AM,21.2,14.0,74,30.35,10.0,NW,10.4,-,N/A,,Scattered Clouds,310,2013-01-18 05:43:00
1:03 AM,21.2,12.2,68,30.36,10.0,NW,9.2,21.9,N/A,,Clear,320,2013-01-18 06:03:00
1:22 AM,21.2,12.2,68,30.37,10.0,WNW,8.1,-,N/A,,Clear,300,2013-01-18 06:22:00
1:43 AM,21.2,12.2,68,30.39,10.0,NW,5.8,-,N/A,,Clear,320,2013-01-18 06:43:00
2:03 AM,21.2,12.2,68,30.40,10.0,NW,9.2,-,N/A,,Clear,320,2013-01-18 07:03:00
2:22 AM,21.2,12.2,68,30.41,10.0,NW,6.9,-,N/A,,Scattered Clouds,310,2013-01-18 07:22:00
2:43 AM,21.2,14.0,74,30.42,10.0,WNW,4.6,-,N/A,,Clear,290,2013-01-18 07:43:00
3:03 AM,19.4,14.0,80,30.42,10.0,WNW,3.5,-,N/A,,Scattered Clouds,290,2013-01-18 08:03:00
3:22 AM,19.4,14.0,80,30.42,10.0,NW,3.5,-,N/A,,Clear,310,2013-01-18 08:22:00
3:43 AM,19.4,14.0,80,30.43,10.0,WNW,4.6,-,N/A,,Clear,290,2013-01-18 08:43:00
4:03 AM,19.4,14.0,80,30.43,10.0,Calm,Calm,-,N/A,,Clear,0,2013-01-18 09:03:00
4:22 AM,19.4,14.0,80,30.43,10.0,Calm,Calm,-,N/A,,Clear,0,2013-01-18 09:22:00
4:43 AM,19.4,14.0,80,30.43,10.0,Calm,Calm,-,N/A,,Clear,0,2013-01-18 09:43:00
5:03 AM,17.6,14.0,86,30.43,10.0,Calm,Calm,-,N/A,,Clear,0,2013-01-18 10:03:00
5:22 AM,19.4,14.0,80,30.43,10.0,Calm,Calm,-,N/A,,Clear,0,2013-01-18 10:22:00
5:43 AM,17.6,14.0,86,30.44,10.0,Calm,Calm,-,N/A,,Clear,0,2013-01-18 10:43:00
6:03 AM,17.6,14.0,86,30.44,10.0,Calm,Calm,-,N/A,,Clear,0,2013-01-18 11:03:00
6:22 AM,19.4,14.0,80,30.44,10.0,Calm,Calm,-,N/A,,Clear,0,2013-01-18 11:22:00
6:43 AM,19.4,14.0,80,30.44,-9999.0,WSW,3.5,-,N/A,,Unknown,240,2013-01-18 11:43:00
7:03 AM,19.4,14.0,80,30.45,10.0,Calm,Calm,-,N/A,,Clear,0,2013-01-18 12:03:00
7:23 AM,19.4,14.0,80,30.45,10.0,Calm,Calm,-,N/A,,Clear,0,2013-01-18 12:23:00
7:43 AM,19.4,14.0,80,30.45,10.0,Calm,Calm,-,N/A,,Clear,0,2013-01-18 12:43:00
8:02 AM,19.4,14.0,80,30.45,10.0,Calm,Calm,-,N/A,,Clear,0,2013-01-18 13:02:00
8:23 AM,19.4,14.0,80,30.46,10.0,Calm,Calm,-,N/A,,Clear,0,2013-01-18 13:23:00
8:43 AM,19.4,15.8,86,30.47,10.0,WSW,3.5,-,N/A,,Clear,240,2013-01-18 13:43:00
9:03 AM,21.2,17.6,86,30.47,10.0,WSW,3.5,-,N/A,,Clear,240,2013-01-18 14:03:00
9:23 AM,23.0,17.6,80,30.48,10.0,SW,4.6,-,N/A,,Clear,230,2013-01-18 14:23:00
9:43 AM,24.8,17.6,74,30.49,10.0,SW,6.9,-,N/A,,Clear,230,2013-01-18 14:43:00
10:02 AM,24.8,17.6,74,30.49,10.0,WSW,5.8,-,N/A,,Clear,240,2013-01-18 15:02:00
10:23 AM,26.6,17.6,69,30.49,10.0,SSW,4.6,-,N/A,,Clear,200,2013-01-18 15:23:00
10:43 AM,26.6,17.6,69,30.49,10.0,SSW,5.8,-,N/A,,Clear,210,2013-01-18 15:43:00
11:02 AM,28.4,17.6,64,30.49,10.0,WSW,8.1,-,N/A,,Clear,240,2013-01-18 16:02:00
11:23 AM,28.4,17.6,64,30.47,10.0,SW,5.8,-,N/A,,Clear,220,2013-01-18 16:23:00
11:43 AM,30.2,17.6,60,30.47,10.0,SW,8.1,-,N/A,,Clear,230,2013-01-18 16:43:00
12:02 PM,30.2,17.6,60,30.46,10.0,SW,11.5,-,N/A,,Clear,220,2013-01-18 17:02:00
12:23 PM,30.2,17.6,60,30.44,10.0,SW,9.2,-,N/A,,Clear,220,2013-01-18 17:23:00
12:43 PM,32.0,17.6,55,30.43,10.0,SW,10.4,-,N/A,,Clear,230,2013-01-18 17:43:00
1:02 PM,32.0,17.6,55,30.42,10.0,SSW,11.5,-,N/A,,Clear,210,2013-01-18 18:02:00
1:23 PM,32.0,19.4,60,30.40,10.0,SSW,12.7,17.3,N/A,,Clear,200,2013-01-18 18:23:00
1:43 PM,32.0,19.4,60,30.39,10.0,South,13.8,-,N/A,,Clear,190,2013-01-18 18:43:00
2:02 PM,32.0,19.4,60,30.38,10.0,South,15.0,20.7,N/A,,Clear,190,2013-01-18 19:02:00
2:23 PM,32.0,19.4,60,30.37,10.0,South,15.0,-,N/A,,Clear,190,2013-01-18 19:23:00
2:43 PM,32.0,19.4,60,30.37,10.0,South,15.0,21.9,N/A,,Clear,190,2013-01-18 19:43:00
3:02 PM,32.0,19.4,60,30.36,10.0,SSW,15.0,23.0,N/A,,Clear,200,2013-01-18 20:02:00
3:23 PM,32.0,19.4,60,30.35,10.0,SSW,15.0,21.9,N/A,,Clear,200,2013-01-18 20:23:00
3:43 PM,32.0,19.4,60,30.34,10.0,SSW,20.7,25.3,N/A,,Clear,200,2013-01-18 20:43:00
4:02 PM,32.0,21.2,64,30.33,10.0,South,15.0,23.0,N/A,,Clear,190,2013-01-18 21:02:00
4:23 PM,32.0,21.2,64,30.33,10.0,SSW,17.3,23.0,N/A,,Clear,200,2013-01-18 21:23:00
4:43 PM,32.0,21.2,64,30.32,10.0,South,19.6,26.5,N/A,,Clear,190,2013-01-18 21:43:00
5:03 PM,32.0,21.2,64,30.31,10.0,South,17.3,24.2,N/A,,Clear,190,2013-01-18 22:03:00
5:23 PM,32.0,19.4,60,30.31,10.0,South,12.7,26.5,N/A,,Clear,190,2013-01-18 22:23:00
5:42 PM,32.0,19.4,60,30.30,10.0,South,13.8,19.6,N/A,,Clear,190,2013-01-18 22:42:00
6:03 PM,32.0,21.2,64,30.30,10.0,South,13.8,23.0,N/A,,Clear,190,2013-01-18 23:03:00
6:23 PM,32.0,21.2,64,30.30,10.0,South,12.7,18.4,N/A,,Clear,190,2013-01-18 23:23:00
6:42 PM,32.0,21.2,64,30.30,10.0,South,15.0,23.0,N/A,,Clear,180,2013-01-18 23:42:00
7:03 PM,32.0,21.2,64,30.29,10.0,South,11.5,-,N/A,,Clear,180,2013-01-19 00:03:00
7:23 PM,32.0,21.2,64,30.29,10.0,South,12.7,20.7,N/A,,Clear,180,2013-01-19 00:23:00
7:42 PM,30.2,21.2,69,30.28,10.0,South,11.5,18.4,N/A,,Clear,180,2013-01-19 00:42:00
8:03 PM,30.2,21.2,69,30.27,10.0,South,15.0,-,N/A,,Clear,180,2013-01-19 01:03:00
8:23 PM,30.2,23.0,75,30.27,10.0,South,11.5,19.6,N/A,,Clear,180,2013-01-19 01:23:00
8:42 PM,30.2,23.0,75,30.26,10.0,South,15.0,20.7,N/A,,Clear,180,2013-01-19 01:42:00
9:03 PM,32.0,23.0,69,30.24,10.0,South,13.8,20.7,N/A,,Clear,190,2013-01-19 02:03:00
9:23 PM,32.0,23.0,69,30.24,10.0,South,12.7,20.7,N/A,,Clear,190,2013-01-19 02:23:00
9:42 PM,32.0,23.0,69,30.23,10.0,South,13.8,23.0,N/A,,Clear,190,2013-01-19 02:42:00
10:03 PM,32.0,23.0,69,30.22,10.0,South,13.8,19.6,N/A,,Clear,190,2013-01-19 03:03:00
10:23 PM,32.0,23.0,69,30.20,10.0,South,12.7,-,N/A,,Clear,190,2013-01-19 03:23:00
10:42 PM,32.0,23.0,69,30.20,10.0,SSW,15.0,21.9,N/A,,Clear,200,2013-01-19 03:42:00
11:23 PM,32.0,23.0,69,30.18,10.0,SSW,16.1,24.2,N/A,,Clear,200,2013-01-19 04:23:00
11:42 PM,32.0,23.0,69,30.17,10.0,SSW,16.1,23.0,N/A,,Clear,200,2013-01-19 04:42:00